Date,TemperatureHighF,TemperatureAvgF,TemperatureLowF,DewpointHighF,DewpointAvgF,DewpointLowF,HumidityHigh,HumidityAvg,HumidityLow,PressureMaxIn,PressureMinIn,WindSpeedMaxMPH,WindSpeedAvgMPH,GustSpeedMaxMPH,PrecipitationSumIn
2013-5-1,82,68,53,61,54,47,83,63,45,30.19,30.04,8,1,8,0.00
2013-5-2,76,68,58,58,54,50,77,61,50,30.22,30.09,9,1,9,0.00
2013-5-3,75,67,60,59,54,46,75,63,48,30.10,29.95,13,2,13,0.00
2013-5-4,70,63,59,48,44,40,63,51,38,30.04,29.97,10,1,10,0.00
2013-5-5,64,59,53,49,47,43,70,63,52,30.03,29.98,8,1,8,0.00
2013-5-6,67,61,55,54,48,43,68,62,54,30.03,29.95,8,1,8,0.00
2013-5-7,73,65,58,57,52,50,76,65,52,30.05,29.98,4,0,4,0.00
2013-5-8,76,63,53,59,52,46,80,67,49,30.05,29.97,4,0,4,0.04
2013-5-9,71,61,52,60,53,47,86,75,50,30.03,29.91,5,0,5,0.18
2013-5-10,65,60,57,59,56,52,89,85,75,29.92,29.83,8,1,8,0.37
2013-5-11,59,48,44,52,42,37,86,82,75,30.02,29.84,4,1,4,0.02
2013-5-12,53,44,37,37,34,31,81,68,55,30.14,30.02,2,0,2,0.02
2013-5-13,61,54,34,39,33,28,81,47,37,30.19,30.11,7,0,7,0.18
2013-5-14,84,65,50,62,48,31,62,53,47,30.12,29.78,13,2,13,0.00
2013-5-15,83,75,69,61,56,50,63,52,43,29.86,29.76,10,2,10,0.18
2013-5-16,79,68,58,59,52,46,80,57,37,29.99,29.84,4,0,4,0.02
2013-5-17,73,63,55,62,53,47,83,72,58,30.10,29.99,6,0,6,0.14
2013-5-18,77,65,56,64,56,48,83,73,62,30.12,30.00,5,0,5,0.03
2013-5-19,84,71,58,66,60,50,79,68,55,30.03,29.87,8,0,8,0.00
2013-5-20,83,76,69,70,65,48,87,71,58,29.95,29.84,8,1,8,0.00
2013-5-21,84,74,65,66,62,58,84,68,48,29.87,29.76,29,2,29,0.02
2013-5-22,74,67,58,64,60,52,86,76,66,29.81,29.72,10,1,10,0.93
2013-5-23,62,55,48,58,51,15,89,86,82,30.20,29.79,7,0,7,0.04
2013-5-24,62,50,42,45,41,37,86,71,52,30.38,30.19,4,0,4,0.00
2013-5-25,61,52,41,47,41,34,80,67,56,30.40,30.26,3,0,3,0.00
2013-5-26,68,58,46,49,43,39,78,60,45,30.33,30.19,7,0,7,0.00
2013-5-27,63,56,50,60,50,45,91,82,62,30.21,29.94,7,0,7,1.19
2013-5-28,78,70,61,69,64,59,92,82,73,29.97,29.88,8,2,8,0.38
2013-5-29,82,74,67,66,63,43,78,69,57,30.04,29.93,9,1,9,0.00
2013-5-30,83,74,66,69,64,60,83,71,58,30.08,29.95,10,2,10,0.00
2013-5-31,75,70,63,68,64,58,89,81,72,30.02,29.87,9,2,9,0.21